Location: Kings Park
(40.8862°N, 73.2573°W)
Time: 05:03:55
(UTC+00:00)

Aureole 3 - Pass Details

Date: 29 October 2020
Orbit: 382 x 1231 km, 82.5° (Epoch: 29 November)

Event Time Altitude Azimuth Distance (km) Brightness Sun altitude
Rises 22:31:23 0° 180° (S) 2,422 6.8 -8.0°
Reaches altitude 10° 22:33:31 10° 177° (S) 1,488 5.6 -8.4°
Maximum altitude 22:36:37 62° 96° (E) 445 2.6 -9.0°
Drops below altitude 10° 22:39:34 10° 15° (NNE) 1,412 5.2 -9.5°
Sets 22:41:32 0° 12° (NNE) 2,282 6.3 -9.9°
